Location: Artiguedieu
(43.5000°N, 0.5454°E)
Time: 21:10:42
(UTC+00:00)

Vanguard 1 - Pass Details

Date: 30 July 2021
Orbit: 652 x 3831 km, 34.3° (Epoch: 19 September)

Event Time Altitude Azimuth Distance (km) Brightness Sun altitude
Rises 12:27:05 0° 249° (WSW) 3,324 13.0 64.4°
Reaches altitude 10° 12:29:13 10° 242° (WSW) 2,583 12.6 64.3°
Maximum altitude 12:34:58 43° 171° (S) 1,672 12.7 64.1°
Drops below altitude 10° 12:44:43 10° 105° (ESE) 4,369 13.5 63.5°
Sets 12:49:31 0° 100° (E) 5,917 14.0 63.1°
